Ban Ao Muang, Thailand

1:50 AM +07 on December 14, 2017 (GMT +0700)
Krabi International School | | Change Station

Elev 92 ft 8.12 °N, 98.78 °E | Updated 32 seconds ago

Partly Cloudy
Partly Cloudy
74.0 °F
Feels Like 70 °F
N
0.0
Wind Variable Wind from NE

Today
High -- | Low -- °F
--% Chance of Precip.
Yesterday
High -- | Low -- °F
Precip. -- in
Pressure 29.89 in
Visibility 5.0 miles
Clouds Few 2000 ft
Heat Index 70 °F
Dew Point 73 °F
Humidity 98%
Rainfall 0.00 in
Snow Depth Not available.
6:30 AM 6:09 PM
Waning Crescent, 18% visible
METAR VTSP 131830Z VRB01KT 8000 FEW020 25/23 Q1012 NOSIG
Pressure 29.89 in
Visibility 5.0 miles
Clouds Few 2000 ft
Heat Index 70 °F
Dew Point 73 °F
Humidity 98%
Rainfall 0.00 in
Snow Depth Not available.
6:30 AM 6:09 PM
Waning Crescent, 18% visible
METAR VTSP 131830Z VRB01KT 8000 FEW020 25/23 Q1012 NOSIG

Get Severe Weather Alerts

Thanks for signing up!

Be on the lookout for a verification email in your inbox.

You'll start receiving the daily forecast at 6 AM.

×

10-Day Weather Forecast

No radar image for this location.
×

Almanac

Astronomy

Dec. 14, 2017 Rise Set
Actual Time
Civil Twilight
Nautical Twilight
Astronomical Twilight
Moon
Length of Visible Light
Length of Day
Tomorrow will be .
, % of the Moon is Illuminated

Today's Extremes

Country Highs Country Lows

Community

WunderPhotos

Category 6

Welcome to Category 6. This is the collective home for Weather Underground's featured writeups by Dr. Jeff Masters (right), Bob Henson (left), Chris Burt, and other regular contributors.

Nearby

Air Quality

  Air Quality AQ Index Pollutant
Not available.

Snow Depth

Station Depth Elevation

Earthquake Activity

City Distance Mag. Time & Date
Minimum magnitude displayed is 2.5.

Coastal Water Temperatures

Place Temperature

Stations

Nearby Weather Stations

Station Location Temp. Windchill Dew Point Humidity Wind Precip. Elev Updated Type